Weather History for KSLE - January, 2014

Change the Weather History Date:

Friday, January 17, 2014

  Actual Average Record
Temperature  
Mean Temperature 35 °F 41 °F  
Max Temperature 37 °F 48 °F 61 °F (1975)
Min Temperature 32 °F 35 °F 13 °F (1950)
Degree Days  
Heating Degree Days 30 24  
Month to date heating degree days 386 415  
Since 1 July heating degree days 2316 2304  
Cooling Degree Days 0 0  
Month to date cooling degree days 0 0  
Year to date cooling degree days 0 0  
Moisture  
Dew Point 33 °F    
Average Humidity 93    
Maximum Humidity 100    
Minimum Humidity 85    
Precipitation  
Precipitation 0.00 in 0.19 in 2.22 in (1997)
Month to date precipitation 1.41 3.45  
Year to date precipitation 1.41 3.45  
Sea Level Pressure  
Sea Level Pressure 30.25 in    
Wind  
Wind Speed 2 mph (SW)    
Max Wind Speed 6 mph    
Max Gust Speed 9 mph    
Visibility 1 miles    
Events Fog    
T = Trace of Precipitation, MM = Missing Value Source: NWS Daily Summary

Daily Weather History Graph

Daily Weather History Graph

Search for Another Location

Airport or City:

Trip Planner

Search our weather history database for the weather conditions in past years. The results will help you decide how hot, cold, wet, or windy it might be!

Date:

Astronomy

Jan. 17, 2014 Rise Set
Actual Time 7:45 AM PST 4:59 PM PST
Civil Twilight 7:12 AM PST 5:32 PM PST
Nautical Twilight 6:36 AM PST 6:08 PM PST
Astronomical Twilight 6:01 AM PST 6:43 PM PST
Moon 6:58 PM PST (1/17) 8:10 AM PST (1/17)
Length of Visible Light 10h 19m
Length of Day
9h 14m
Full, 98% of the Moon is Illuminated
Jan 17
Full
Jan 23
Last Quarter
Jan 30
New
Feb 6
First Quarter
Feb 14
Full

Hourly Weather History & Observations

Time (PST) Temp. Windchill Dew Point Humidity Pressure Visibility Wind Dir Wind Speed Gust Speed Precip Events Conditions
12:56 AM 33.1 °F 30.0 °F 32.0 °F 96% 30.30 in 0.5 mi WSW 3.5 mph - N/A Fog Fog
1:33 AM 34.0 °F - 34.0 °F 100% 30.29 in 0.2 mi Calm Calm - N/A Fog Fog
1:46 AM 34.0 °F - 33.1 °F 96% 30.29 in 0.5 mi Calm Calm - N/A Fog Fog
1:56 AM 33.1 °F 30.0 °F 32.0 °F 96% 30.30 in 0.5 mi SE 3.5 mph - N/A Fog Fog
2:56 AM 33.1 °F 30.0 °F 32.0 °F 96% 30.30 in 0.5 mi SSW 3.5 mph - N/A Fog Fog
3:56 AM 34.0 °F 29.8 °F 32.0 °F 92% 30.29 in 0.5 mi North 4.6 mph - N/A Fog Fog
4:14 AM 33.1 °F 30.0 °F 33.1 °F 100% 30.28 in 0.2 mi North 3.5 mph - N/A Fog Fog
4:56 AM 33.1 °F - 32.0 °F 96% 30.28 in 0.2 mi Calm Calm - N/A Fog Fog
5:56 AM 33.1 °F - 32.0 °F 96% 30.27 in 0.5 mi Calm Calm - N/A Fog Fog
6:56 AM 32.0 °F - 30.9 °F 96% 30.27 in 0.5 mi Calm Calm - N/A Fog Fog
7:56 AM 32.0 °F 28.7 °F 30.9 °F 96% 30.27 in 0.5 mi WSW 3.5 mph - N/A Fog Fog
8:11 AM 32.0 °F - 30.9 °F 96% 30.26 in 0.2 mi Calm Calm - N/A Fog Fog
8:56 AM 32.0 °F - 32.0 °F 100% 30.28 in 0.2 mi Calm Calm - N/A Fog Fog
9:56 AM 33.1 °F - 32.0 °F 96% 30.28 in 0.2 mi Calm Calm - N/A Fog Fog
10:52 AM 33.8 °F 30.8 °F 32.0 °F 93% 30.27 in 0.5 mi SW 3.5 mph - N/A Fog Fog
10:56 AM 33.1 °F 30.0 °F 32.0 °F 96% 30.28 in 0.5 mi SSW 3.5 mph - N/A Fog Fog
11:56 AM 33.1 °F - 33.1 °F 100% 30.25 in 0.5 mi Calm Calm - N/A Fog Fog
12:00 PM 33.1 °F - 33.1 °F 100% 30.24 in 3.0 mi Calm Calm - N/A   Overcast
12:07 PM 33.1 °F 30.0 °F 32.0 °F 96% 30.24 in 1.0 mi SSW 3.5 mph - N/A   Overcast
12:56 PM 34.0 °F - 32.0 °F 92% 30.23 in 2.0 mi Calm Calm - N/A   Overcast
1:56 PM 35.1 °F - 33.1 °F 92% 30.22 in 3.0 mi Calm Calm - N/A   Overcast
2:56 PM 36.0 °F 33.3 °F 34.0 °F 93% 30.22 in 7.0 mi SW 3.5 mph - N/A   Overcast
3:56 PM 36.0 °F - 34.0 °F 93% 30.22 in 3.0 mi Calm Calm - N/A   Overcast
4:56 PM 37.0 °F 34.5 °F 34.0 °F 89% 30.22 in 3.0 mi North 3.5 mph - N/A   Overcast
5:56 PM 35.1 °F - 34.0 °F 96% 30.22 in 2.0 mi Calm Calm - N/A   Overcast
6:04 PM 35.1 °F - 34.0 °F 96% 30.22 in 1.5 mi Calm Calm - N/A   Overcast
6:51 PM 35.6 °F - 33.8 °F 93% 30.22 in 1.2 mi Calm Calm - N/A   Overcast
6:56 PM 35.1 °F 32.2 °F 34.0 °F 96% 30.23 in 1.2 mi NW 3.5 mph - N/A   Overcast
7:31 PM 35.1 °F - 34.0 °F 96% 30.22 in 0.8 mi Calm Calm - N/A   Mist
7:56 PM 35.1 °F - 34.0 °F 96% 30.23 in 0.8 mi Calm Calm - N/A   Mist
8:56 PM 35.1 °F - 33.1 °F 92% 30.24 in 0.2 mi Calm Calm - N/A Fog Fog
9:56 PM 35.1 °F 31.0 °F 33.1 °F 92% 30.24 in 0.2 mi South 4.6 mph - N/A Fog Fog
10:56 PM 34.0 °F 31.0 °F 33.1 °F 96% 30.25 in 0.5 mi SE 3.5 mph - N/A Fog Fog
11:46 PM 35.1 °F - 33.1 °F 92% 30.24 in 0.2 mi Calm Calm - N/A Fog Fog
11:56 PM 34.0 °F 31.0 °F 33.1 °F 96% 30.25 in 0.5 mi SE 3.5 mph - N/A Fog Fog